Location: Oklahoma City
(35.4680°N, 97.5160°W)
Time: 11:47:33
(UTC-05:00)

ISS - All Passes

Search period start: 25 May 2016 00:00
Search period end: 04 June 2016 00:00
Orbit: 402 x 404 km, 51.6° (Epoch: 25 May)

Date Brightness Start Highest point End Pass type
(mag) Time Alt. Az. Time Alt. Az. Time Alt. Az.
25 May - 04:42:23 10° N 04:43:41 12° NNE 04:45:01 10° NE visible
25 May - 06:17:20 10° NW 06:20:36 80° NE 06:23:51 10° SE daylight
25 May - 21:21:03 10° SE 21:21:43 10° SE 21:22:24 10° ESE visible
25 May - 22:54:33 10° WSW 22:57:46 58° NW 23:00:59 10° NE night (unlit)
26 May - 00:34:25 10° NNW 00:34:47 10° NNW 00:35:09 10° NNW visible
26 May - 05:24:44 10° NNW 05:27:48 37° NE 05:30:52 10° ESE visible
26 May - 07:01:52 10° W 07:04:01 16° SW 07:06:09 10° S daylight
26 May - 22:01:49 10° SW 22:05:02 62° SE 22:08:16 10° NE visible
26 May - 23:39:43 10° WNW 23:41:45 15° NNW 23:43:47 10° N visible
27 May - 04:32:21 10° NNW 04:34:56 21° NNE 04:37:29 10° E visible
27 May - 06:08:25 10° WNW 06:11:25 34° SW 06:14:25 10° SSE daylight
27 May - 21:09:33 10° SSW 21:12:23 27° SE 21:15:13 10° ENE visible
27 May - 22:46:03 10° W 22:48:47 25° NW 22:51:33 10° NNE visible
28 May - 03:40:14 10° N 03:41:56 13° NNE 03:43:39 10° ENE visible
28 May - 05:15:29 10° NW 05:18:45 80° SW 05:21:59 10° SE visible
28 May - 20:18:11 10° SSE 20:19:48 13° SE 20:21:27 10° E daylight
28 May - 21:52:47 10° WSW 21:55:55 46° NW 21:59:05 10° NE visible
29 May - 04:22:49 10° NW 04:25:58 46° NE 04:29:07 10° ESE visible
29 May - 06:00:28 10° W 06:02:06 13° SW 06:03:44 10° SSW daylight
29 May - 20:59:54 10° SW 21:03:10 80° SE 21:06:24 10° NE visible
29 May - 22:38:13 10° WNW 22:39:57 13° NNW 22:41:41 10° N visible
30 May - 03:30:20 10° NNW 03:33:06 25° NNE 03:35:51 10° E visible
30 May - 05:06:41 10° WNW 05:09:30 27° SW 05:12:19 10° SSE visible
30 May - 20:07:28 10° SSW 20:10:28 34° SE 20:13:27 10° ENE daylight
30 May - 21:44:22 10° W 21:46:57 21° NNW 21:49:33 10° NNE visible
31 May - 02:38:06 10° N 02:40:08 15° NNE 02:42:09 10° ENE visible
31 May - 04:13:37 10° NW 04:16:50 62° SW 04:20:03 10° SE night (unlit)
31 May - 19:15:42 10° S 19:17:51 16° SE 19:19:59 10° E daylight
31 May - 20:50:58 10° WSW 20:54:03 37° NW 20:57:07 10° NNE daylight
01 Jun - 01:46:45 10° NNE 01:47:03 10° NNE 01:47:21 10° NNE visible
01 Jun - 03:20:51 10° NW 03:24:04 58° NE 03:27:17 10° ESE night (unlit)
01 Jun - 04:59:26 10° WSW 05:00:07 10° SW 05:00:48 10° SW night (unlit)
01 Jun - 19:57:58 10° SW 20:01:13 81° NW 20:04:29 10° NE daylight
01 Jun - 21:36:46 10° NW 21:38:07 12° NNW 21:39:27 10° N visible
02 Jun - 02:28:18 10° NNW 02:31:13 29° NE 02:34:07 10° E visible
02 Jun - 04:04:56 10° WNW 04:07:32 22° SW 04:10:07 10° S night (unlit)
02 Jun - 19:05:22 10° SSW 19:08:29 44° SE 19:11:37 10° ENE daylight
02 Jun - 20:42:41 10° WNW 20:45:04 18° NNW 20:47:28 10° NNE daylight
03 Jun - 01:35:58 10° NNW 01:38:15 17° NNE 01:40:31 10° ENE visible
03 Jun - 03:11:43 10° WNW 03:14:52 48° SW 03:18:01 10° SSE night (unlit)
03 Jun - 18:13:20 10° S 18:15:50 20° SE 18:18:19 10° E daylight
03 Jun - 19:49:09 10° W 19:52:07 31° NW 19:55:05 10° NNE daylight
